• în România
  • Lista ţărilor
  • Pe 7 zile
  • Temperatura apei
  • Hartă satelitară
  • Meteo pe hartă
  • Widget-uri
  • user-avatar
    Intrare

    Meteo pe oră la Pervomayskiy

    Astăzi, 26 Septembrie, Miercuri

    Timp Temperatura Precipitaţii Vânt Presiune Umiditate
    00:00 +18°C° 0.2 mm 4 m/s 738 mmHg 82%
    01:00 +17°C° 0.1 mm 4 m/s 738 mmHg 81%
    02:00 +15°C° 0.1 mm 4 m/s 738 mmHg 81%
    03:00 +15°C° 0.1 mm 4 m/s 738 mmHg 81%
    04:00 +14°C° 0.1 mm 4 m/s 738 mmHg 81%
    05:00 +14°C° 0.1 mm 4 m/s 739 mmHg 80%
    06:00 +13°C° 0.1 mm 4 m/s 739 mmHg 80%
    07:00 +13°C° 0.2 mm 4 m/s 740 mmHg 80%
    08:00 +13°C° 0.2 mm 4 m/s 740 mmHg 80%
    09:00 +12°C° 0.2 mm 4 m/s 741 mmHg 80%
    10:00 +12°C° 0.2 mm 3 m/s 741 mmHg 80%
    11:00 +12°C° 0.2 mm 3 m/s 741 mmHg 79%
    12:00 +12°C° 0.2 mm 3 m/s 742 mmHg 79%
    13:00 +13°C° 0.1 mm 2 m/s 742 mmHg 77%
    14:00 +13°C° 0.1 mm 2 m/s 742 mmHg 76%
    15:00 +13°C° 0.1 mm 2 m/s 742 mmHg 75%
    16:00 +13°C° 0.1 mm 2 m/s 742 mmHg 75%
    17:00 +13°C° 0.1 mm 2 m/s 742 mmHg 76%
    18:00 +13°C° 0.1 mm 2 m/s 742 mmHg 76%
    19:00 +13°C° 0 mm 2 m/s 742 mmHg 75%
    20:00 +13°C° 0 mm 2 m/s 743 mmHg 74%
    21:00 +13°C° 0 mm 2 m/s 743 mmHg 73%
    22:00 +13°C° 0 mm 1 m/s 743 mmHg 72%
    23:00 +12°C° 0 mm 1 m/s 743 mmHg 72%

    Mâine, 27 Septembrie, Joi

    Timp Temperatura Precipitaţii Vânt Presiune Umiditate
    00:00 +12°C° 0 mm 1 m/s 743 mmHg 71%
    01:00 +12°C° 0 mm 1 m/s 743 mmHg 72%
    02:00 +12°C° 0 mm 1 m/s 743 mmHg 72%
    03:00 +12°C° 0 mm 1 m/s 743 mmHg 72%
    04:00 +12°C° 0 mm 1 m/s 743 mmHg 73%
    05:00 +12°C° 0 mm 1 m/s 743 mmHg 74%
    06:00 +11°C° 0 mm 1 m/s 743 mmHg 74%
    07:00 +12°C° 0.2 mm 1 m/s 743 mmHg 72%
    08:00 +13°C° 0.2 mm 1 m/s 743 mmHg 70%
    09:00 +14°C° 0.2 mm 1 m/s 743 mmHg 68%
    10:00 +15°C° 0 mm 2 m/s 743 mmHg 62%
    11:00 +16°C° 0 mm 2 m/s 743 mmHg 56%
    12:00 +18°C° 0 mm 3 m/s 742 mmHg 50%
    13:00 +18°C° 0 mm 3 m/s 742 mmHg 49%
    14:00 +19°C° 0 mm 3 m/s 742 mmHg 47%
    15:00 +19°C° 0 mm 2 m/s 741 mmHg 46%
    16:00 +18°C° 0 mm 2 m/s 741 mmHg 50%
    17:00 +17°C° 0 mm 2 m/s 741 mmHg 54%
    18:00 +16°C° 0 mm 1 m/s 741 mmHg 58%
    19:00 +15°C° 0 mm 1 m/s 742 mmHg 61%
    20:00 +15°C° 0 mm 1 m/s 742 mmHg 63%
    21:00 +14°C° 0 mm 1 m/s 742 mmHg 66%
    22:00 +14°C° 0 mm 1 m/s 742 mmHg 67%
    23:00 +14°C° 0 mm 1 m/s 742 mmHg 68%

    Poimâine, 28 Septembrie, Vineri

    Timp Temperatura Precipitaţii Vânt Presiune Umiditate
    00:00 +13°C° 0 mm 1 m/s 742 mmHg 69%
    01:00 +13°C° 0 mm 1 m/s 742 mmHg 70%
    02:00 +13°C° 0 mm 1 m/s 742 mmHg 71%
    03:00 +13°C° 0 mm 1 m/s 742 mmHg 72%
    04:00 +12°C° 0 mm 1 m/s 742 mmHg 73%
    05:00 +12°C° 0 mm 1 m/s 742 mmHg 74%
    06:00 +11°C° 0 mm 0 m/s 742 mmHg 75%
    07:00 +13°C° 0 mm 1 m/s 742 mmHg 69%
    08:00 +15°C° 0 mm 1 m/s 742 mmHg 63%
    09:00 +18°C° 0 mm 1 m/s 742 mmHg 57%
    10:00 +18°C° 0 mm 2 m/s 741 mmHg 53%
    11:00 +20°C° 0 mm 3 m/s 741 mmHg 50%
    12:00 +21°C° 0 mm 3 m/s 741 mmHg 46%
    13:00 +22°C° 0 mm 4 m/s 740 mmHg 46%
    14:00 +22°C° 0 mm 4 m/s 740 mmHg 45%
    15:00 +23°C° 0 mm 4 m/s 739 mmHg 45%
    16:00 +21°C° 0 mm 4 m/s 739 mmHg 49%
    17:00 +20°C° 0 mm 3 m/s 739 mmHg 54%
    18:00 +18°C° 0 mm 3 m/s 739 mmHg 59%
    19:00 +18°C° 0 mm 2 m/s 739 mmHg 62%
    20:00 +17°C° 0 mm 2 m/s 739 mmHg 65%
    21:00 +17°C° 0 mm 2 m/s 738 mmHg 68%
    22:00 +16°C° 0 mm 2 m/s 738 mmHg 70%
    23:00 +16°C° 0 mm 2 m/s 738 mmHg 73%

    29 Septembrie, Sâmbătă

    Timp Temperatura Precipitaţii Vânt Presiune Umiditate
    00:00 +15°C° 0 mm 2 m/s 738 mmHg 76%
    01:00 +15°C° 0 mm 2 m/s 738 mmHg 78%
    02:00 +15°C° 0 mm 2 m/s 737 mmHg 81%
    03:00 +14°C° 0 mm 1 m/s 737 mmHg 83%
    04:00 +14°C° 0 mm 1 m/s 737 mmHg 84%
    05:00 +14°C° 0 mm 1 m/s 737 mmHg 86%
    06:00 +14°C° 0 mm 1 m/s 737 mmHg 87%
    07:00 +15°C° 0 mm 1 m/s 737 mmHg 82%
    08:00 +17°C° 0 mm 2 m/s 737 mmHg 78%
    09:00 +18°C° 0 mm 2 m/s 737 mmHg 73%
    10:00 +20°C° 0 mm 2 m/s 737 mmHg 69%
    11:00 +21°C° 0 mm 2 m/s 736 mmHg 66%
    12:00 +22°C° 0 mm 3 m/s 736 mmHg 62%
    13:00 +24°C° 0 mm 3 m/s 736 mmHg 60%
    14:00 +24°C° 0 mm 3 m/s 736 mmHg 57%
    15:00 +25°C° 0 mm 3 m/s 736 mmHg 55%
    16:00 +24°C° 0 mm 2 m/s 736 mmHg 60%
    17:00 +21°C° 0 mm 2 m/s 736 mmHg 66%
    18:00 +20°C° 0 mm 2 m/s 736 mmHg 72%
    19:00 +21°C° 0 mm 1 m/s 736 mmHg 74%
    20:00 +20°C° 0 mm 1 m/s 736 mmHg 77%
    21:00 +19°C° 0 mm 1 m/s 736 mmHg 79%
    22:00 +19°C° 0 mm 1 m/s 736 mmHg 79%
    23:00 +19°C° 0 mm 1 m/s 736 mmHg 79%

    30 Septembrie, Duminică

    Timp Temperatura Precipitaţii Vânt Presiune Umiditate
    00:00 +19°C° 0 mm 1 m/s 736 mmHg 79%
    01:00 +18°C° 0 mm 1 m/s 736 mmHg 80%
    02:00 +18°C° 0 mm 1 m/s 736 mmHg 80%
    03:00 +18°C° 0 mm 1 m/s 736 mmHg 81%
    04:00 +18°C° 0 mm 1 m/s 736 mmHg 81%
    05:00 +16°C° 0 mm 1 m/s 736 mmHg 81%
    06:00 +16°C° 0 mm 1 m/s 737 mmHg 81%
    07:00 +19°C° 0 mm 1 m/s 737 mmHg 74%
    08:00 +21°C° 0 mm 1 m/s 737 mmHg 68%
    09:00 +21°C° 0 mm 2 m/s 737 mmHg 62%
    10:00 +24°C° 0 mm 2 m/s 737 mmHg 58%
    11:00 +25°C° 0 mm 3 m/s 737 mmHg 54%
    12:00 +26°C° 0 mm 3 m/s 737 mmHg 50%
    13:00 +27°C° 0 mm 4 m/s 737 mmHg 49%
    14:00 +27°C° 0 mm 4 m/s 737 mmHg 48%
    15:00 +27°C° 0 mm 4 m/s 737 mmHg 47%
    16:00 +26°C° 0 mm 4 m/s 737 mmHg 51%
    17:00 +24°C° 0 mm 3 m/s 737 mmHg 55%
    18:00 +22°C° 0 mm 3 m/s 737 mmHg 59%
    19:00 +21°C° 0 mm 3 m/s 737 mmHg 60%
    20:00 +20°C° 0 mm 3 m/s 737 mmHg 62%
    21:00 +20°C° 0 mm 3 m/s 738 mmHg 63%
    22:00 +19°C° 0 mm 3 m/s 737 mmHg 65%
    23:00 +19°C° 0 mm 2 m/s 737 mmHg 66%

    1 Octombrie, Luni

    Timp Temperatura Precipitaţii Vânt Presiune Umiditate
    00:00 +18°C° 0 mm 2 m/s 737 mmHg 67%
    01:00 +18°C° 0 mm 2 m/s 737 mmHg 70%
    02:00 +18°C° 0 mm 2 m/s 736 mmHg 74%
    03:00 +18°C° 0 mm 2 m/s 736 mmHg 77%
    04:00 +18°C° 0 mm 3 m/s 736 mmHg 80%
    05:00 +18°C° 0 mm 3 m/s 736 mmHg 83%
    06:00 +17°C° 0 mm 3 m/s 736 mmHg 86%
    07:00 +19°C° 0 mm 3 m/s 736 mmHg 84%
    08:00 +20°C° 0 mm 4 m/s 736 mmHg 81%
    09:00 +21°C° 0 mm 5 m/s 736 mmHg 79%
    10:00 +21°C° 0 mm 5 m/s 736 mmHg 76%
    11:00 +22°C° 0 mm 5 m/s 736 mmHg 74%
    12:00 +23°C° 0 mm 5 m/s 736 mmHg 71%
    13:00 +23°C° 0 mm 5 m/s 735 mmHg 68%
    14:00 +25°C° 0 mm 5 m/s 735 mmHg 66%
    15:00 +25°C° 0 mm 5 m/s 735 mmHg 63%
    16:00 +23°C° 0 mm 4 m/s 735 mmHg 67%
    17:00 +22°C° 0 mm 4 m/s 735 mmHg 71%
    18:00 +21°C° 0 mm 3 m/s 736 mmHg 75%
    19:00 +20°C° 0 mm 3 m/s 736 mmHg 77%
    20:00 +20°C° 0 mm 3 m/s 736 mmHg 79%
    21:00 +19°C° 0 mm 3 m/s 736 mmHg 81%
    22:00 +19°C° 0 mm 3 m/s 735 mmHg 82%
    23:00 +18°C° 0 mm 3 m/s 735 mmHg 82%
    Arată mai mult